| time (UTC) | temp F | wind direction | speed MPH | gust MPH | rain 1hr in | rain 24hr in | rain mn in | humidity % | barometer mb |
| 20260507065405 | 48 | 0 | 0.0 | 0.0 | 0.00 | 0.00 | 0.00 | 89 | 1016.5 |
| 20260507064505 | 47 | 0 | 0.0 | 0.0 | 0.00 | 0.00 | 0.00 | 91 | 1016.4 |
| 20260507063603 | 45 | 16 | 0.0 | 1.0 | 0.00 | 0.00 | 0.00 | 92 | 1016.5 |
| 20260507062705 | 44 | 16 | 0.0 | 2.0 | 0.00 | 0.00 | 0.00 | 92 | 1016.5 |
| 20260507061803 | 43 | 11 | 1.0 | 3.0 | 0.00 | 0.00 | 0.00 | 92 | 1016.4 |
| 20260507061117 | 43 | 10 | 0.0 | 2.0 | 0.00 | 0.00 | 0.00 | 92 | 1016.4 |
| 20260507060004 | 43 | 11 | 1.0 | 4.0 | 0.00 | 0.00 | 0.00 | 92 | 1016.3 |
| 20260507055403 | 43 | 13 | 0.0 | 2.0 | 0.00 | 0.00 | 0.00 | 93 | 1016.3 |
| 20260507054503 | 43 | 11 | 0.0 | 4.0 | 0.00 | 0.00 | 0.00 | 93 | 1016.2 |
| 20260507053605 | 42 | 7 | 0.0 | 3.0 | 0.00 | 0.00 | 0.00 | 93 | 1016.1 |
| 20260507052703 | 42 | 0 | 0.0 | 0.0 | 0.00 | 0.00 | 0.00 | 93 | 1016.1 |
| 20260507051804 | 42 | 9 | 0.0 | 1.0 | 0.00 | 0.00 | 0.00 | 93 | 1016.1 |
| 20260507051119 | 41 | 0 | 0.0 | 0.0 | 0.00 | 0.00 | 0.00 | 93 | 1016.0 |
| 20260507050005 | 41 | 0 | 0.0 | 0.0 | 0.00 | 0.00 | 0.00 | 92 | 1015.9 |
| 20260507045405 | 41 | 9 | 0.0 | 2.0 | 0.00 | 0.00 | 0.00 | 92 | 1015.9 |
| 20260507044719 | 40 | 9 | 1.0 | 3.0 | 0.00 | 0.00 | 0.00 | 92 | 1015.8 |
| 20260507043603 | 40 | 3 | 1.0 | 3.0 | 0.00 | 0.00 | 0.00 | 92 | 1015.8 |
| 20260507042705 | 40 | 9 | 1.0 | 4.0 | 0.00 | 0.00 | 0.00 | 92 | 1015.8 |
| 20260507041803 | 40 | 360 | 1.0 | 3.0 | 0.00 | 0.00 | 0.00 | 92 | 1015.8 |
| 20260507041119 | 40 | 360 | 0.0 | 3.0 | 0.00 | 0.00 | 0.00 | 92 | 1015.9 |
| 20260507040003 | 40 | 359 | 1.0 | 3.0 | 0.00 | 0.00 | 0.00 | 91 | 1015.9 |
| 20260507035404 | 40 | 356 | 1.0 | 4.0 | 0.00 | 0.00 | 0.00 | 91 | 1015.8 |
| 20260507034508 | 41 | 355 | 0.0 | 3.0 | 0.00 | 0.00 | 0.00 | 91 | 1015.8 |
| 20260507033605 | 41 | 355 | 0.0 | 2.0 | 0.00 | 0.00 | 0.00 | 91 | 1015.8 |
| 20260507032705 | 42 | 3 | 0.0 | 3.0 | 0.00 | 0.00 | 0.00 | 91 | 1015.7 |
| 20260507031805 | 42 | 20 | 1.0 | 3.0 | 0.00 | 0.00 | 0.00 | 92 | 1015.7 |
| 20260507030905 | 42 | 20 | 1.0 | 3.0 | 0.00 | 0.00 | 0.00 | 92 | 1015.8 |
| 20260507030005 | 42 | 20 | 1.0 | 3.0 | 0.00 | 0.00 | 0.00 | 92 | 1015.8 |
| 20260507025619 | 42 | 18 | 1.0 | 3.0 | 0.00 | 0.00 | 0.00 | 92 | 1015.8 |
| 20260507024503 | 42 | 6 | 2.0 | 4.0 | 0.00 | 0.00 | 0.00 | 92 | 1015.7 |
| 20260507023818 | 42 | 8 | 1.0 | 4.0 | 0.00 | 0.00 | 0.00 | 92 | 1015.7 |
| 20260507022703 | 42 | 10 | 0.0 | 1.0 | 0.00 | 0.00 | 0.00 | 92 | 1015.8 |
| 20260507021805 | 41 | 12 | 1.0 | 3.0 | 0.00 | 0.00 | 0.00 | 92 | 1015.8 |
| 20260507020904 | 41 | 3 | 1.0 | 3.0 | 0.00 | 0.00 | 0.00 | 92 | 1015.8 |
| 20260507020004 | 41 | 5 | 1.0 | 3.0 | 0.00 | 0.00 | 0.00 | 91 | 1015.7 |
| 20260507015409 | 40 | 5 | 1.0 | 3.0 | 0.00 | 0.00 | 0.00 | 91 | 1015.7 |
| 20260507014503 | 40 | 5 | 0.0 | 3.0 | 0.00 | 0.00 | 0.00 | 91 | 1015.6 |
| 20260507013603 | 40 | 5 | 1.0 | 3.0 | 0.00 | 0.00 | 0.00 | 91 | 1015.6 |
| 20260507012706 | 41 | 5 | 1.0 | 3.0 | 0.00 | 0.00 | 0.00 | 91 | 1015.7 |
| 20260507011804 | 41 | 5 | 0.0 | 3.0 | 0.00 | 0.00 | 0.00 | 91 | 1015.7 |
| 20260507010903 | 41 | 5 | 0.0 | 2.0 | 0.00 | 0.00 | 0.00 | 90 | 1015.7 |
| 20260507010003 | 41 | 5 | 1.0 | 3.0 | 0.00 | 0.00 | 0.00 | 91 | 1015.6 |
| 20260507005616 | 41 | 4 | 1.0 | 3.0 | 0.00 | 0.00 | 0.00 | 91 | 1015.6 |
| 20260507004503 | 41 | 359 | 1.0 | 3.0 | 0.00 | 0.00 | 0.00 | 90 | 1015.5 |
| 20260507003603 | 41 | 359 | 2.0 | 4.0 | 0.00 | 0.00 | 0.00 | 90 | 1015.6 |
| 20260507002703 | 41 | 5 | 0.0 | 2.0 | 0.00 | 0.00 | 0.00 | 90 | 1015.6 |
| 20260507001804 | 42 | 0 | 0.0 | 0.0 | 0.00 | 0.00 | 0.00 | 89 | 1015.6 |
| 20260507001117 | 42 | 0 | 0.0 | 0.0 | 0.00 | 0.00 | 0.00 | 89 | 1015.7 |
| 20260507000003 | 42 | 0 | 0.0 | 0.0 | 0.00 | 0.00 | 0.00 | 88 | 1015.7 |
| 20260506235403 | 42 | 5 | 0.0 | 1.0 | 0.00 | 0.00 | 0.00 | 88 | 1015.6 |
| 20260506234505 | 43 | 15 | 0.0 | 1.0 | 0.00 | 0.00 | 0.00 | 88 | 1015.5 |
| 20260506233605 | 43 | 15 | 0.0 | 2.0 | 0.00 | 0.00 | 0.00 | 88 | 1015.5 |
| 20260506232703 | 43 | 14 | 1.0 | 3.0 | 0.00 | 0.00 | 0.00 | 88 | 1015.5 |
| 20260506231803 | 44 | 11 | 0.0 | 2.0 | 0.00 | 0.00 | 0.00 | 88 | 1015.6 |
| 20260506230905 | 44 | 5 | 0.0 | 2.0 | 0.00 | 0.00 | 0.00 | 87 | 1015.6 |
| 20260506230003 | 44 | 2 | 1.0 | 4.0 | 0.00 | 0.00 | 0.00 | 87 | 1015.6 |
| 20260506225618 | 44 | 357 | 1.0 | 4.0 | 0.00 | 0.00 | 0.00 | 87 | 1015.6 |
| 20260506224505 | 45 | 355 | 0.0 | 2.0 | 0.00 | 0.00 | 0.00 | 86 | 1015.6 |
| 20260506223605 | 45 | 355 | 0.0 | 2.0 | 0.00 | 0.00 | 0.00 | 86 | 1015.5 |
| 20260506222704 | 45 | 16 | 0.0 | 3.0 | 0.00 | 0.00 | 0.00 | 85 | 1015.5 |
| 20260506221805 | 46 | 18 | 0.0 | 3.0 | 0.00 | 0.00 | 0.00 | 84 | 1015.4 |
| 20260506221118 | 46 | 5 | 0.0 | 1.0 | 0.00 | 0.00 | 0.00 | 84 | 1015.4 |
| 20260506220218 | 46 | 17 | 0.0 | 2.0 | 0.00 | 0.00 | 0.00 | 83 | 1015.4 |
| 20260506215405 | 47 | 29 | 0.0 | 3.0 | 0.00 | 0.00 | 0.00 | 83 | 1015.3 |
| 20260506214505 | 47 | 30 | 1.0 | 4.0 | 0.00 | 0.00 | 0.00 | 82 | 1015.3 |
| 20260506213603 | 48 | 28 | 0.0 | 4.0 | 0.00 | 0.00 | 0.00 | 81 | 1015.3 |
| 20260506212703 | 48 | 32 | 1.0 | 4.0 | 0.00 | 0.00 | 0.00 | 80 | 1015.3 |
| 20260506211803 | 48 | 20 | 0.0 | 3.0 | 0.00 | 0.00 | 0.00 | 80 | 1015.3 |
| 20260506210904 | 49 | 19 | 1.0 | 4.0 | 0.00 | 0.00 | 0.00 | 79 | 1015.3 |
| 20260506210006 | 49 | 25 | 1.0 | 6.0 | 0.00 | 0.00 | 0.00 | 78 | 1015.1 |
| 20260506205620 | 49 | 28 | 1.0 | 6.0 | 0.00 | 0.00 | 0.00 | 77 | 1015.1 |
| 20260506204503 | 49 | 9 | 2.0 | 9.0 | 0.00 | 0.00 | 0.00 | 76 | 1015.0 |
| 20260506203603 | 50 | 21 | 1.0 | 5.0 | 0.00 | 0.00 | 0.00 | 76 | 1014.9 |
| 20260506202705 | 50 | 13 | 1.0 | 5.0 | 0.00 | 0.00 | 0.00 | 75 | 1014.8 |
| 20260506201803 | 50 | 1 | 3.0 | 8.0 | 0.00 | 0.00 | 0.00 | 74 | 1014.8 |
| 20260506200903 | 51 | 6 | 3.0 | 11.0 | 0.00 | 0.00 | 0.00 | 73 | 1014.7 |
| 20260506200005 | 51 | 9 | 4.0 | 11.0 | 0.00 | 0.00 | 0.00 | 73 | 1014.7 |
| 20260506195405 | 51 | 8 | 3.0 | 11.0 | 0.00 | 0.00 | 0.00 | 72 | 1014.6 |
| 20260506194503 | 51 | 5 | 2.0 | 8.0 | 0.00 | 0.00 | 0.00 | 71 | 1014.4 |
| 20260506193603 | 52 | 358 | 2.0 | 8.0 | 0.00 | 0.00 | 0.00 | 69 | 1014.4 |
| 20260506192917 | 52 | 42 | 1.0 | 4.0 | 0.00 | 0.00 | 0.00 | 68 | 1014.3 |
| 20260506191804 | 52 | 4 | 1.0 | 5.0 | 0.00 | 0.00 | 0.00 | 67 | 1014.3 |
| 20260506190904 | 52 | 351 | 1.0 | 4.0 | 0.00 | 0.00 | 0.00 | 65 | 1014.2 |
| 20260506190004 | 52 | 359 | 2.0 | 7.0 | 0.00 | 0.00 | 0.00 | 64 | 1014.1 |
| 20260506185404 | 52 | 340 | 2.0 | 10.0 | 0.00 | 0.00 | 0.00 | 64 | 1014.2 |
| 20260506184505 | 52 | 340 | 2.0 | 10.0 | 0.00 | 0.00 | 0.00 | 64 | 1014.1 |
| 20260506183604 | 52 | 331 | 2.0 | 6.0 | 0.00 | 0.00 | 0.00 | 63 | 1014.0 |
| 20260506182704 | 53 | 340 | 1.0 | 4.0 | 0.00 | 0.00 | 0.00 | 63 | 1013.9 |
| 20260506181806 | 53 | 343 | 2.0 | 5.0 | 0.00 | 0.00 | 0.00 | 62 | 1013.9 |
| 20260506180903 | 53 | 325 | 2.0 | 6.0 | 0.00 | 0.00 | 0.00 | 63 | 1013.8 |
| 20260506180218 | 53 | 330 | 2.0 | 7.0 | 0.00 | 0.00 | 0.00 | 63 | 1013.7 |
| 20260506175404 | 54 | 352 | 2.0 | 7.0 | 0.00 | 0.00 | 0.00 | 63 | 1013.5 |
| 20260506174720 | 54 | 334 | 3.0 | 8.0 | 0.00 | 0.00 | 0.00 | 61 | 1013.5 |
| 20260506173603 | 54 | 357 | 3.0 | 10.0 | 0.00 | 0.00 | 0.00 | 62 | 1013.5 |
| 20260506172703 | 54 | 345 | 3.0 | 10.0 | 0.00 | 0.00 | 0.00 | 61 | 1013.3 |
| 20260506171803 | 55 | 342 | 3.0 | 9.0 | 0.00 | 0.00 | 0.00 | 60 | 1013.3 |
| 20260506170903 | 55 | 11 | 3.0 | 9.0 | 0.00 | 0.00 | 0.00 | 59 | 1013.3 |
| 20260506170005 | 55 | 11 | 3.0 | 10.0 | 0.00 | 0.00 | 0.00 | 59 | 1013.3 |
| 20260506165404 | 56 | 7 | 3.0 | 10.0 | 0.00 | 0.00 | 0.00 | 59 | 1013.4 |
| 20260506164505 | 55 | 359 | 3.0 | 10.0 | 0.00 | 0.00 | 0.00 | 60 | 1013.3 |
| 20260506163605 | 55 | 11 | 3.0 | 11.0 | 0.00 | 0.00 | 0.00 | 59 | 1013.3 |
| 20260506162703 | 56 | 16 | 3.0 | 9.0 | 0.00 | 0.00 | 0.00 | 58 | 1013.3 |
| 20260506161805 | 56 | 352 | 4.0 | 12.0 | 0.00 | 0.00 | 0.00 | 58 | 1013.4 |
| 20260506160906 | 56 | 350 | 3.0 | 12.0 | 0.00 | 0.00 | 0.00 | 57 | 1013.3 |
| 20260506160221 | 57 | 10 | 4.0 | 13.0 | 0.00 | 0.00 | 0.00 | 57 | 1013.5 |
| 20260506155405 | 58 | 15 | 3.0 | 12.0 | 0.00 | 0.00 | 0.00 | 56 | 1013.4 |
| 20260506154505 | 58 | 4 | 4.0 | 11.0 | 0.00 | 0.00 | 0.00 | 58 | 1013.5 |
| 20260506153603 | 59 | 11 | 5.0 | 12.0 | 0.00 | 0.00 | 0.00 | 57 | 1013.5 |
| 20260506152704 | 58 | 11 | 3.0 | 12.0 | 0.00 | 0.00 | 0.00 | 58 | 1013.5 |
| 20260506151803 | 58 | 11 | 2.0 | 10.0 | 0.00 | 0.00 | 0.00 | 58 | 1013.5 |
| 20260506150903 | 58 | 15 | 4.0 | 12.0 | 0.00 | 0.00 | 0.00 | 59 | 1013.6 |
| 20260506150005 | 57 | 8 | 4.0 | 14.0 | 0.00 | 0.00 | 0.00 | 59 | 1013.6 |
| 20260506145620 | 57 | 9 | 5.0 | 14.0 | 0.00 | 0.00 | 0.00 | 59 | 1013.7 |
| 20260506144503 | 57 | 9 | 3.0 | 9.0 | 0.00 | 0.00 | 0.00 | 61 | 1013.6 |
| 20260506143603 | 57 | 4 | 4.0 | 11.0 | 0.00 | 0.00 | 0.00 | 61 | 1013.5 |
| 20260506142916 | 57 | 5 | 5.0 | 12.0 | 0.00 | 0.00 | 0.00 | 60 | 1013.5 |
| 20260506141803 | 57 | 23 | 3.0 | 14.0 | 0.00 | 0.00 | 0.00 | 60 | 1013.7 |
| 20260506140903 | 56 | 341 | 5.0 | 12.0 | 0.00 | 0.00 | 0.00 | 61 | 1013.6 |
| 20260506140005 | 56 | 351 | 4.0 | 10.0 | 0.00 | 0.00 | 0.00 | 60 | 1013.6 |
| 20260506135403 | 56 | 14 | 3.0 | 10.0 | 0.00 | 0.00 | 0.00 | 61 | 1013.7 |
| 20260506134718 | 57 | 14 | 4.0 | 13.0 | 0.00 | 0.00 | 0.00 | 59 | 1013.6 |
| 20260506133605 | 58 | 6 | 3.0 | 10.0 | 0.00 | 0.00 | 0.00 | 58 | 1013.6 |
| 20260506132705 | 57 | 355 | 4.0 | 13.0 | 0.00 | 0.00 | 0.00 | 58 | 1013.6 |
| 20260506131803 | 57 | 10 | 3.0 | 10.0 | 0.00 | 0.00 | 0.00 | 59 | 1013.7 |
| 20260506130903 | 57 | 9 | 4.0 | 13.0 | 0.00 | 0.00 | 0.00 | 60 | 1013.7 |
| 20260506130003 | 56 | 7 | 5.0 | 13.0 | 0.00 | 0.00 | 0.00 | 59 | 1013.8 |
| 20260506125403 | 57 | 10 | 5.0 | 12.0 | 0.00 | 0.00 | 0.00 | 59 | 1013.8 |
| 20260506124504 | 58 | 16 | 4.0 | 12.0 | 0.00 | 0.00 | 0.00 | 58 | 1013.8 |
| 20260506123603 | 59 | 13 | 4.0 | 13.0 | 0.00 | 0.00 | 0.00 | 57 | 1013.8 |
| 20260506122705 | 59 | 7 | 5.0 | 15.0 | 0.00 | 0.00 | 0.00 | 58 | 1013.8 |
| 20260506121806 | 59 | 7 | 4.0 | 12.0 | 0.00 | 0.00 | 0.00 | 56 | 1013.7 |
| 20260506120903 | 59 | 9 | 4.0 | 11.0 | 0.00 | 0.00 | 0.00 | 56 | 1013.7 |
| 20260506120003 | 58 | 1 | 4.0 | 13.0 | 0.00 | 0.00 | 0.00 | 56 | 1013.7 |
| 20260506115404 | 57 | 6 | 4.0 | 13.0 | 0.00 | 0.00 | 0.00 | 57 | 1013.7 |
| 20260506114717 | 58 | 360 | 3.0 | 13.0 | 0.00 | 0.00 | 0.00 | 56 | 1013.7 |
| 20260506113604 | 58 | 4 | 6.0 | 18.0 | 0.00 | 0.00 | 0.00 | 55 | 1013.8 |
| 20260506112703 | 58 | 6 | 4.0 | 12.0 | 0.00 | 0.00 | 0.00 | 54 | 1013.8 |
| 20260506111803 | 58 | 356 | 4.0 | 13.0 | 0.00 | 0.00 | 0.00 | 54 | 1013.9 |
| 20260506110905 | 58 | 353 | 5.0 | 15.0 | 0.00 | 0.00 | 0.00 | 54 | 1013.8 |
| 20260506110005 | 57 | 357 | 5.0 | 15.0 | 0.00 | 0.00 | 0.00 | 54 | 1013.8 |
| 20260506105403 | 57 | 351 | 4.0 | 13.0 | 0.00 | 0.00 | 0.00 | 55 | 1013.9 |
| 20260506104505 | 57 | 343 | 4.0 | 12.0 | 0.00 | 0.00 | 0.00 | 59 | 1013.8 |
| 20260506103603 | 56 | 1 | 5.0 | 14.0 | 0.00 | 0.00 | 0.00 | 57 | 1013.8 |
| 20260506102705 | 56 | 348 | 4.0 | 12.0 | 0.00 | 0.00 | 0.00 | 59 | 1013.8 |
| 20260506101805 | 57 | 359 | 4.0 | 11.0 | 0.00 | 0.00 | 0.00 | 59 | 1013.8 |
| 20260506100903 | 56 | 7 | 5.0 | 11.0 | 0.00 | 0.00 | 0.00 | 60 | 1013.8 |
| 20260506100004 | 55 | 10 | 5.0 | 16.0 | 0.00 | 0.00 | 0.00 | 62 | 1013.8 |
| 20260506095622 | 55 | 6 | 5.0 | 16.0 | 0.00 | 0.00 | 0.00 | 62 | 1013.7 |
| 20260506094503 | 55 | 358 | 5.0 | 17.0 | 0.00 | 0.00 | 0.00 | 61 | 1013.7 |
| 20260506093605 | 55 | 357 | 5.0 | 15.0 | 0.00 | 0.00 | 0.00 | 64 | 1013.7 |
| 20260506092917 | 54 | 5 | 3.0 | 15.0 | 0.00 | 0.00 | 0.00 | 67 | 1013.7 |
| 20260506091805 | 52 | 5 | 4.0 | 10.0 | 0.00 | 0.00 | 0.00 | 72 | 1013.7 |
| 20260506090905 | 50 | 351 | 4.0 | 10.0 | 0.00 | 0.00 | 0.00 | 72 | 1013.8 |
| 20260506090005 | 50 | 3 | 2.0 | 9.0 | 0.00 | 0.00 | 0.00 | 74 | 1013.8 |
| 20260506085405 | 49 | 360 | 4.0 | 10.0 | 0.00 | 0.00 | 0.00 | 74 | 1013.8 |
| 20260506084505 | 49 | 345 | 3.0 | 10.0 | 0.00 | 0.00 | 0.00 | 75 | 1013.8 |
| 20260506083819 | 49 | 358 | 5.0 | 14.0 | 0.00 | 0.00 | 0.00 | 74 | 1013.8 |
| 20260506082706 | 48 | 1 | 4.0 | 12.0 | 0.00 | 0.00 | 0.00 | 76 | 1013.7 |
| 20260506081806 | 48 | 357 | 5.0 | 12.0 | 0.00 | 0.00 | 0.00 | 77 | 1013.8 |
| 20260506072704 | 46 | 344 | 3.0 | 10.0 | 0.00 | 0.00 | 0.00 | 80 | 1013.9 |
| 20260506072019 | 46 | 346 | 3.0 | 12.0 | 0.00 | 0.00 | 0.00 | 80 | 1013.8 |
| 20260506070905 | 47 | 350 | 4.0 | 12.0 | 0.00 | 0.00 | 0.00 | 79 | 1013.7 |